Index of /20260506/WXO-DD/model_caps/3km/12/043
Name Last modified Size Description
Parent Directory -
20260506T12Z_MSC_CAPS_AbsoluteVorticity_IsbL-0250_RLatLon0.03_PT043H.grib2 2026-05-06 18:26 1.1M
20260506T12Z_MSC_CAPS_AbsoluteVorticity_IsbL-0500_RLatLon0.03_PT043H.grib2 2026-05-06 18:26 1.4M
20260506T12Z_MSC_CAPS_AbsoluteVorticity_IsbL-0700_RLatLon0.03_PT043H.grib2 2026-05-06 18:26 1.3M
20260506T12Z_MSC_CAPS_AbsoluteVorticity_IsbL-0850_RLatLon0.03_PT043H.grib2 2026-05-06 18:26 1.2M
20260506T12Z_MSC_CAPS_AbsoluteVorticity_IsbL-1000_RLatLon0.03_PT043H.grib2 2026-05-06 18:26 1.7M
20260506T12Z_MSC_CAPS_AirDensity_AGL-120m_RLatLon0.03_PT043H.grib2 2026-05-06 18:26 1.4M
20260506T12Z_MSC_CAPS_AirDensity_AGL-40m_RLatLon0.03_PT043H.grib2 2026-05-06 18:26 1.4M
20260506T12Z_MSC_CAPS_AirDensity_AGL-80m_RLatLon0.03_PT043H.grib2 2026-05-06 18:26 1.4M
20260506T12Z_MSC_CAPS_AirTemp_AGL-120m_RLatLon0.03_PT043H.grib2 2026-05-06 18:26 1.8M
20260506T12Z_MSC_CAPS_AirTemp_AGL-2m_RLatLon0.03_PT043H.grib2 2026-05-06 18:26 1.8M
20260506T12Z_MSC_CAPS_AirTemp_AGL-40m_RLatLon0.03_PT043H.grib2 2026-05-06 18:26 1.5M
20260506T12Z_MSC_CAPS_AirTemp_AGL-80m_RLatLon0.03_PT043H.grib2 2026-05-06 18:26 1.8M
20260506T12Z_MSC_CAPS_AirTemp_IsbL-0050_RLatLon0.03_PT043H.grib2 2026-05-06 18:26 688K
20260506T12Z_MSC_CAPS_AirTemp_IsbL-0100_RLatLon0.03_PT043H.grib2 2026-05-06 18:26 939K
20260506T12Z_MSC_CAPS_AirTemp_IsbL-0150_RLatLon0.03_PT043H.grib2 2026-05-06 18:26 742K
20260506T12Z_MSC_CAPS_AirTemp_IsbL-0175_RLatLon0.03_PT043H.grib2 2026-05-06 18:26 770K
20260506T12Z_MSC_CAPS_AirTemp_IsbL-0200_RLatLon0.03_PT043H.grib2 2026-05-06 18:26 790K
20260506T12Z_MSC_CAPS_AirTemp_IsbL-0225_RLatLon0.03_PT043H.grib2 2026-05-06 18:26 791K
20260506T12Z_MSC_CAPS_AirTemp_IsbL-0250_RLatLon0.03_PT043H.grib2 2026-05-06 18:26 778K
20260506T12Z_MSC_CAPS_AirTemp_IsbL-0275_RLatLon0.03_PT043H.grib2 2026-05-06 18:26 1.0M
20260506T12Z_MSC_CAPS_AirTemp_IsbL-0300_RLatLon0.03_PT043H.grib2 2026-05-06 18:26 1.0M
20260506T12Z_MSC_CAPS_AirTemp_IsbL-0350_RLatLon0.03_PT043H.grib2 2026-05-06 18:26 745K
20260506T12Z_MSC_CAPS_AirTemp_IsbL-0400_RLatLon0.03_PT043H.grib2 2026-05-06 18:26 746K
20260506T12Z_MSC_CAPS_AirTemp_IsbL-0450_RLatLon0.03_PT043H.grib2 2026-05-06 18:26 763K
20260506T12Z_MSC_CAPS_AirTemp_IsbL-0500_RLatLon0.03_PT043H.grib2 2026-05-06 18:26 784K
20260506T12Z_MSC_CAPS_AirTemp_IsbL-0550_RLatLon0.03_PT043H.grib2 2026-05-06 18:26 953K
20260506T12Z_MSC_CAPS_AirTemp_IsbL-0600_RLatLon0.03_PT043H.grib2 2026-05-06 18:26 967K
20260506T12Z_MSC_CAPS_AirTemp_IsbL-0650_RLatLon0.03_PT043H.grib2 2026-05-06 18:26 846K
20260506T12Z_MSC_CAPS_AirTemp_IsbL-0700_RLatLon0.03_PT043H.grib2 2026-05-06 18:26 883K
20260506T12Z_MSC_CAPS_AirTemp_IsbL-0750_RLatLon0.03_PT043H.grib2 2026-05-06 18:26 918K
20260506T12Z_MSC_CAPS_AirTemp_IsbL-0800_RLatLon0.03_PT043H.grib2 2026-05-06 18:26 1.1M
20260506T12Z_MSC_CAPS_AirTemp_IsbL-0850_RLatLon0.03_PT043H.grib2 2026-05-06 18:26 1.1M
20260506T12Z_MSC_CAPS_AirTemp_IsbL-0875_RLatLon0.03_PT043H.grib2 2026-05-06 18:26 1.1M
20260506T12Z_MSC_CAPS_AirTemp_IsbL-0900_RLatLon0.03_PT043H.grib2 2026-05-06 18:26 1.1M
20260506T12Z_MSC_CAPS_AirTemp_IsbL-0925_RLatLon0.03_PT043H.grib2 2026-05-06 18:26 1.1M
20260506T12Z_MSC_CAPS_AirTemp_IsbL-0950_RLatLon0.03_PT043H.grib2 2026-05-06 18:26 1.1M
20260506T12Z_MSC_CAPS_AirTemp_IsbL-0970_RLatLon0.03_PT043H.grib2 2026-05-06 18:26 1.1M
20260506T12Z_MSC_CAPS_AirTemp_IsbL-0985_RLatLon0.03_PT043H.grib2 2026-05-06 18:26 1.1M
20260506T12Z_MSC_CAPS_AirTemp_IsbL-1000_RLatLon0.03_PT043H.grib2 2026-05-06 18:26 1.1M
20260506T12Z_MSC_CAPS_AirTemp_IsbL-1015_RLatLon0.03_PT043H.grib2 2026-05-06 18:26 1.1M
20260506T12Z_MSC_CAPS_Albedo_Sfc_RLatLon0.03_PT043H.grib2 2026-05-06 18:26 2.7M
20260506T12Z_MSC_CAPS_CAPE_Sfc_RLatLon0.03_PT043H.grib2 2026-05-06 18:26 278K
20260506T12Z_MSC_CAPS_CloudWater_EAtm_RLatLon0.03_PT043H.grib2 2026-05-06 18:26 1.6M
20260506T12Z_MSC_CAPS_ConvectivePrecip-Accum_Sfc_RLatLon0.03_PT043H.grib2 2026-05-06 18:26 5.1M
20260506T12Z_MSC_CAPS_DewPointDepression_AGL-120m_RLatLon0.03_PT043H.grib2 2026-05-06 18:26 2.1M
20260506T12Z_MSC_CAPS_DewPointDepression_AGL-2m_RLatLon0.03_PT043H.grib2 2026-05-06 18:26 2.2M
20260506T12Z_MSC_CAPS_DewPointDepression_AGL-40m_RLatLon0.03_PT043H.grib2 2026-05-06 18:26 2.2M
20260506T12Z_MSC_CAPS_DewPointDepression_AGL-80m_RLatLon0.03_PT043H.grib2 2026-05-06 18:26 2.1M
20260506T12Z_MSC_CAPS_DewPointDepression_IsbL-0050_RLatLon0.03_PT043H.grib2 2026-05-06 18:26 6.9K
20260506T12Z_MSC_CAPS_DewPointDepression_IsbL-0100_RLatLon0.03_PT043H.grib2 2026-05-06 18:26 52K
20260506T12Z_MSC_CAPS_DewPointDepression_IsbL-0150_RLatLon0.03_PT043H.grib2 2026-05-06 18:26 65K
20260506T12Z_MSC_CAPS_DewPointDepression_IsbL-0175_RLatLon0.03_PT043H.grib2 2026-05-06 18:26 216K
20260506T12Z_MSC_CAPS_DewPointDepression_IsbL-0200_RLatLon0.03_PT043H.grib2 2026-05-06 18:26 415K
20260506T12Z_MSC_CAPS_DewPointDepression_IsbL-0225_RLatLon0.03_PT043H.grib2 2026-05-06 18:26 593K
20260506T12Z_MSC_CAPS_DewPointDepression_IsbL-0250_RLatLon0.03_PT043H.grib2 2026-05-06 18:26 873K
20260506T12Z_MSC_CAPS_DewPointDepression_IsbL-0275_RLatLon0.03_PT043H.grib2 2026-05-06 18:26 1.0M
20260506T12Z_MSC_CAPS_DewPointDepression_IsbL-0300_RLatLon0.03_PT043H.grib2 2026-05-06 18:26 1.1M
20260506T12Z_MSC_CAPS_DewPointDepression_IsbL-0350_RLatLon0.03_PT043H.grib2 2026-05-06 18:26 1.1M
20260506T12Z_MSC_CAPS_DewPointDepression_IsbL-0400_RLatLon0.03_PT043H.grib2 2026-05-06 18:26 1.1M
20260506T12Z_MSC_CAPS_DewPointDepression_IsbL-0450_RLatLon0.03_PT043H.grib2 2026-05-06 18:26 1.2M
20260506T12Z_MSC_CAPS_DewPointDepression_IsbL-0500_RLatLon0.03_PT043H.grib2 2026-05-06 18:26 1.2M
20260506T12Z_MSC_CAPS_DewPointDepression_IsbL-0550_RLatLon0.03_PT043H.grib2 2026-05-06 18:26 1.3M
20260506T12Z_MSC_CAPS_DewPointDepression_IsbL-0600_RLatLon0.03_PT043H.grib2 2026-05-06 18:26 1.3M
20260506T12Z_MSC_CAPS_DewPointDepression_IsbL-0650_RLatLon0.03_PT043H.grib2 2026-05-06 18:26 1.3M
20260506T12Z_MSC_CAPS_DewPointDepression_IsbL-0700_RLatLon0.03_PT043H.grib2 2026-05-06 18:26 1.4M
20260506T12Z_MSC_CAPS_DewPointDepression_IsbL-0750_RLatLon0.03_PT043H.grib2 2026-05-06 18:26 1.4M
20260506T12Z_MSC_CAPS_DewPointDepression_IsbL-0800_RLatLon0.03_PT043H.grib2 2026-05-06 18:26 1.4M
20260506T12Z_MSC_CAPS_DewPointDepression_IsbL-0850_RLatLon0.03_PT043H.grib2 2026-05-06 18:26 1.4M
20260506T12Z_MSC_CAPS_DewPointDepression_IsbL-0875_RLatLon0.03_PT043H.grib2 2026-05-06 18:26 1.4M
20260506T12Z_MSC_CAPS_DewPointDepression_IsbL-0900_RLatLon0.03_PT043H.grib2 2026-05-06 18:26 1.4M
20260506T12Z_MSC_CAPS_DewPointDepression_IsbL-0925_RLatLon0.03_PT043H.grib2 2026-05-06 18:26 1.4M
20260506T12Z_MSC_CAPS_DewPointDepression_IsbL-0950_RLatLon0.03_PT043H.grib2 2026-05-06 18:26 1.4M
20260506T12Z_MSC_CAPS_DewPointDepression_IsbL-0970_RLatLon0.03_PT043H.grib2 2026-05-06 18:26 1.4M
20260506T12Z_MSC_CAPS_DewPointDepression_IsbL-0985_RLatLon0.03_PT043H.grib2 2026-05-06 18:26 1.4M
20260506T12Z_MSC_CAPS_DewPointDepression_IsbL-1000_RLatLon0.03_PT043H.grib2 2026-05-06 18:26 1.4M
20260506T12Z_MSC_CAPS_DewPointDepression_IsbL-1015_RLatLon0.03_PT043H.grib2 2026-05-06 18:26 1.4M
20260506T12Z_MSC_CAPS_DewPoint_AGL-120m_RLatLon0.03_PT043H.grib2 2026-05-06 18:26 3.7M
20260506T12Z_MSC_CAPS_DewPoint_AGL-2m_RLatLon0.03_PT043H.grib2 2026-05-06 18:26 1.8M
20260506T12Z_MSC_CAPS_DewPoint_AGL-40m_RLatLon0.03_PT043H.grib2 2026-05-06 18:26 3.8M
20260506T12Z_MSC_CAPS_DewPoint_AGL-80m_RLatLon0.03_PT043H.grib2 2026-05-06 18:26 3.7M
20260506T12Z_MSC_CAPS_DownwardLongwaveRadiationFlux-Accum_Sfc_RLatLon0.03_PT043H.grib2 2026-05-06 18:26 2.3M
20260506T12Z_MSC_CAPS_DownwardShortwaveRadiationFlux-Accum_NTAtm_RLatLon0.03_PT043H.grib2 2026-05-06 18:26 468K
20260506T12Z_MSC_CAPS_DownwardShortwaveRadiationFlux-Accum_Sfc_RLatLon0.03_PT043H.grib2 2026-05-06 18:26 3.1M
20260506T12Z_MSC_CAPS_FreezingRain-Accum_Sfc_RLatLon0.03_PT043H.grib2 2026-05-06 18:26 1.1M
20260506T12Z_MSC_CAPS_GeopotentialHeight_IsbL-0050_RLatLon0.03_PT043H.grib2 2026-05-06 18:26 827K
20260506T12Z_MSC_CAPS_GeopotentialHeight_IsbL-0100_RLatLon0.03_PT043H.grib2 2026-05-06 18:26 745K
20260506T12Z_MSC_CAPS_GeopotentialHeight_IsbL-0150_RLatLon0.03_PT043H.grib2 2026-05-06 18:26 597K
20260506T12Z_MSC_CAPS_GeopotentialHeight_IsbL-0175_RLatLon0.03_PT043H.grib2 2026-05-06 18:26 715K
20260506T12Z_MSC_CAPS_GeopotentialHeight_IsbL-0200_RLatLon0.03_PT043H.grib2 2026-05-06 18:26 732K
20260506T12Z_MSC_CAPS_GeopotentialHeight_IsbL-0225_RLatLon0.03_PT043H.grib2 2026-05-06 18:26 746K
20260506T12Z_MSC_CAPS_GeopotentialHeight_IsbL-0250_RLatLon0.03_PT043H.grib2 2026-05-06 18:26 758K
20260506T12Z_MSC_CAPS_GeopotentialHeight_IsbL-0275_RLatLon0.03_PT043H.grib2 2026-05-06 18:26 771K
20260506T12Z_MSC_CAPS_GeopotentialHeight_IsbL-0300_RLatLon0.03_PT043H.grib2 2026-05-06 18:26 775K
20260506T12Z_MSC_CAPS_GeopotentialHeight_IsbL-0350_RLatLon0.03_PT043H.grib2 2026-05-06 18:26 776K
20260506T12Z_MSC_CAPS_GeopotentialHeight_IsbL-0400_RLatLon0.03_PT043H.grib2 2026-05-06 18:26 769K
20260506T12Z_MSC_CAPS_GeopotentialHeight_IsbL-0450_RLatLon0.03_PT043H.grib2 2026-05-06 18:26 762K
20260506T12Z_MSC_CAPS_GeopotentialHeight_IsbL-0500_RLatLon0.03_PT043H.grib2 2026-05-06 18:26 752K
20260506T12Z_MSC_CAPS_GeopotentialHeight_IsbL-0550_RLatLon0.03_PT043H.grib2 2026-05-06 18:26 742K
20260506T12Z_MSC_CAPS_GeopotentialHeight_IsbL-0600_RLatLon0.03_PT043H.grib2 2026-05-06 18:26 627K
20260506T12Z_MSC_CAPS_GeopotentialHeight_IsbL-0650_RLatLon0.03_PT043H.grib2 2026-05-06 18:26 625K
20260506T12Z_MSC_CAPS_GeopotentialHeight_IsbL-0700_RLatLon0.03_PT043H.grib2 2026-05-06 18:26 624K
20260506T12Z_MSC_CAPS_GeopotentialHeight_IsbL-0750_RLatLon0.03_PT043H.grib2 2026-05-06 18:26 623K
20260506T12Z_MSC_CAPS_GeopotentialHeight_IsbL-0800_RLatLon0.03_PT043H.grib2 2026-05-06 18:26 622K
20260506T12Z_MSC_CAPS_GeopotentialHeight_IsbL-0850_RLatLon0.03_PT043H.grib2 2026-05-06 18:26 810K
20260506T12Z_MSC_CAPS_GeopotentialHeight_IsbL-0875_RLatLon0.03_PT043H.grib2 2026-05-06 18:26 819K
20260506T12Z_MSC_CAPS_GeopotentialHeight_IsbL-0900_RLatLon0.03_PT043H.grib2 2026-05-06 18:26 826K
20260506T12Z_MSC_CAPS_GeopotentialHeight_IsbL-0925_RLatLon0.03_PT043H.grib2 2026-05-06 18:26 823K
20260506T12Z_MSC_CAPS_GeopotentialHeight_IsbL-0950_RLatLon0.03_PT043H.grib2 2026-05-06 18:26 845K
20260506T12Z_MSC_CAPS_GeopotentialHeight_IsbL-0970_RLatLon0.03_PT043H.grib2 2026-05-06 18:26 855K
20260506T12Z_MSC_CAPS_GeopotentialHeight_IsbL-0985_RLatLon0.03_PT043H.grib2 2026-05-06 18:26 667K
20260506T12Z_MSC_CAPS_GeopotentialHeight_IsbL-1000_RLatLon0.03_PT043H.grib2 2026-05-06 18:26 675K
20260506T12Z_MSC_CAPS_GeopotentialHeight_IsbL-1015_RLatLon0.03_PT043H.grib2 2026-05-06 18:26 683K
20260506T12Z_MSC_CAPS_GeopotentialHeight_Sfc_RLatLon0.03_PT043H.grib2 2026-05-06 18:26 1.0M
20260506T12Z_MSC_CAPS_IcePellets-Accum_Sfc_RLatLon0.03_PT043H.grib2 2026-05-06 18:26 34K
20260506T12Z_MSC_CAPS_LatentHeatNetFlux_Sfc_RLatLon0.03_PT043H.grib2 2026-05-06 18:26 1.8M
20260506T12Z_MSC_CAPS_LiftedIndex-MU-VT_IsbL-0500_RLatLon0.03_PT043H.grib2 2026-05-06 18:26 3.4M
20260506T12Z_MSC_CAPS_MixedLayerThickness_Sfc_RLatLon0.03_PT043H.nc 2026-05-06 18:14 16M
20260506T12Z_MSC_CAPS_NetLongwaveRadiationFlux-Accum_Sfc_RLatLon0.03_PT043H.grib2 2026-05-06 18:26 3.0M
20260506T12Z_MSC_CAPS_NetShortwaveRadiationFlux-Accum_Sfc_RLatLon0.03_PT043H.grib2 2026-05-06 18:26 3.0M
20260506T12Z_MSC_CAPS_PlanetaryBoundaryLayerHeight_Sfc_RLatLon0.03_PT043H.grib2 2026-05-06 18:26 3.0M
20260506T12Z_MSC_CAPS_Precip-Accum_Sfc_RLatLon0.03_PT043H.grib2 2026-05-06 18:26 5.8M
20260506T12Z_MSC_CAPS_PrecipRate_Sfc_RLatLon0.03_PT043H.grib2 2026-05-06 18:26 512K
20260506T12Z_MSC_CAPS_PrecipType-Instant_Sfc_RLatLon0.03_PT043H.grib2 2026-05-06 18:26 2.1M
20260506T12Z_MSC_CAPS_Pressure_MSL_RLatLon0.03_PT043H.grib2 2026-05-06 18:26 911K
20260506T12Z_MSC_CAPS_Pressure_Sfc_RLatLon0.03_PT043H.grib2 2026-05-06 18:26 1.2M
20260506T12Z_MSC_CAPS_RadiativeTemp_Sfc_RLatLon0.03_PT043H.grib2 2026-05-06 18:26 2.1M
20260506T12Z_MSC_CAPS_Rain-Accum_Sfc_RLatLon0.03_PT043H.grib2 2026-05-06 18:26 3.0M
20260506T12Z_MSC_CAPS_RelativeHumidity_AGL-120m_RLatLon0.03_PT043H.grib2 2026-05-06 18:26 2.8M
20260506T12Z_MSC_CAPS_RelativeHumidity_AGL-2m_RLatLon0.03_PT043H.grib2 2026-05-06 18:26 2.9M
20260506T12Z_MSC_CAPS_RelativeHumidity_AGL-40m_RLatLon0.03_PT043H.grib2 2026-05-06 18:26 2.9M
20260506T12Z_MSC_CAPS_RelativeHumidity_AGL-80m_RLatLon0.03_PT043H.grib2 2026-05-06 18:26 2.8M
20260506T12Z_MSC_CAPS_RelativeHumidity_IsbL-0050_RLatLon0.03_PT043H.grib2 2026-05-06 18:26 724K
20260506T12Z_MSC_CAPS_RelativeHumidity_IsbL-0100_RLatLon0.03_PT043H.grib2 2026-05-06 18:26 1.1M
20260506T12Z_MSC_CAPS_RelativeHumidity_IsbL-0150_RLatLon0.03_PT043H.grib2 2026-05-06 18:26 469K
20260506T12Z_MSC_CAPS_RelativeHumidity_IsbL-0175_RLatLon0.03_PT043H.grib2 2026-05-06 18:26 476K
20260506T12Z_MSC_CAPS_RelativeHumidity_IsbL-0200_RLatLon0.03_PT043H.grib2 2026-05-06 18:26 681K
20260506T12Z_MSC_CAPS_RelativeHumidity_IsbL-0225_RLatLon0.03_PT043H.grib2 2026-05-06 18:26 921K
20260506T12Z_MSC_CAPS_RelativeHumidity_IsbL-0250_RLatLon0.03_PT043H.grib2 2026-05-06 18:26 1.1M
20260506T12Z_MSC_CAPS_RelativeHumidity_IsbL-0275_RLatLon0.03_PT043H.grib2 2026-05-06 18:26 1.4M
20260506T12Z_MSC_CAPS_RelativeHumidity_IsbL-0300_RLatLon0.03_PT043H.grib2 2026-05-06 18:26 1.7M
20260506T12Z_MSC_CAPS_RelativeHumidity_IsbL-0350_RLatLon0.03_PT043H.grib2 2026-05-06 18:26 2.0M
20260506T12Z_MSC_CAPS_RelativeHumidity_IsbL-0400_RLatLon0.03_PT043H.grib2 2026-05-06 18:26 2.1M
20260506T12Z_MSC_CAPS_RelativeHumidity_IsbL-0450_RLatLon0.03_PT043H.grib2 2026-05-06 18:26 2.3M
20260506T12Z_MSC_CAPS_RelativeHumidity_IsbL-0500_RLatLon0.03_PT043H.grib2 2026-05-06 18:26 2.2M
20260506T12Z_MSC_CAPS_RelativeHumidity_IsbL-0550_RLatLon0.03_PT043H.grib2 2026-05-06 18:26 2.3M
20260506T12Z_MSC_CAPS_RelativeHumidity_IsbL-0600_RLatLon0.03_PT043H.grib2 2026-05-06 18:26 2.4M
20260506T12Z_MSC_CAPS_RelativeHumidity_IsbL-0650_RLatLon0.03_PT043H.grib2 2026-05-06 18:26 2.3M
20260506T12Z_MSC_CAPS_RelativeHumidity_IsbL-0700_RLatLon0.03_PT043H.grib2 2026-05-06 18:26 2.4M
20260506T12Z_MSC_CAPS_RelativeHumidity_IsbL-0750_RLatLon0.03_PT043H.grib2 2026-05-06 18:26 2.5M
20260506T12Z_MSC_CAPS_RelativeHumidity_IsbL-0800_RLatLon0.03_PT043H.grib2 2026-05-06 18:26 2.6M
20260506T12Z_MSC_CAPS_RelativeHumidity_IsbL-0850_RLatLon0.03_PT043H.grib2 2026-05-06 18:26 2.7M
20260506T12Z_MSC_CAPS_RelativeHumidity_IsbL-0875_RLatLon0.03_PT043H.grib2 2026-05-06 18:26 2.7M
20260506T12Z_MSC_CAPS_RelativeHumidity_IsbL-0900_RLatLon0.03_PT043H.grib2 2026-05-06 18:26 2.7M
20260506T12Z_MSC_CAPS_RelativeHumidity_IsbL-0925_RLatLon0.03_PT043H.grib2 2026-05-06 18:26 2.7M
20260506T12Z_MSC_CAPS_RelativeHumidity_IsbL-0950_RLatLon0.03_PT043H.grib2 2026-05-06 18:26 2.8M
20260506T12Z_MSC_CAPS_RelativeHumidity_IsbL-0970_RLatLon0.03_PT043H.grib2 2026-05-06 18:26 2.8M
20260506T12Z_MSC_CAPS_RelativeHumidity_IsbL-0985_RLatLon0.03_PT043H.grib2 2026-05-06 18:26 2.9M
20260506T12Z_MSC_CAPS_RelativeHumidity_IsbL-1000_RLatLon0.03_PT043H.grib2 2026-05-06 18:26 2.9M
20260506T12Z_MSC_CAPS_RelativeHumidity_IsbL-1015_RLatLon0.03_PT043H.grib2 2026-05-06 18:26 3.0M
20260506T12Z_MSC_CAPS_Runoff-Accum_Sfc_RLatLon0.03_PT043H.grib2 2026-05-06 18:26 346K
20260506T12Z_MSC_CAPS_SeaIceAreaFraction_Sfc_RLatLon0.03_PT043H.nc 2026-05-06 18:14 15M
20260506T12Z_MSC_CAPS_SeaIceCompressiveStrength_Sfc_RLatLon0.03_PT043H.nc 2026-05-06 18:14 15M
20260506T12Z_MSC_CAPS_SeaIceDivergence_Sfc_RLatLon0.03_PT043H.nc 2026-05-06 18:14 15M
20260506T12Z_MSC_CAPS_SeaIceInternalPressure_Sfc_RLatLon0.03_PT043H.nc 2026-05-06 18:14 15M
20260506T12Z_MSC_CAPS_SeaIceShear_Sfc_RLatLon0.03_PT043H.nc 2026-05-06 18:14 15M
20260506T12Z_MSC_CAPS_SeaIceSnowTemp_Sfc_RLatLon0.03_PT043H.nc 2026-05-06 18:14 14M
20260506T12Z_MSC_CAPS_SeaIceSnowVolume_Sfc_RLatLon0.03_PT043H.nc 2026-05-06 18:14 15M
20260506T12Z_MSC_CAPS_SeaIceVelocityX_Sfc_RLatLon0.03_PT043H.nc 2026-05-06 18:14 15M
20260506T12Z_MSC_CAPS_SeaIceVelocityY_Sfc_RLatLon0.03_PT043H.nc 2026-05-06 18:14 15M
20260506T12Z_MSC_CAPS_SeaIceVolume_Sfc_RLatLon0.03_PT043H.nc 2026-05-06 18:14 15M
20260506T12Z_MSC_CAPS_SeaSurfaceHeight_Sfc_RLatLon0.03_PT043H.nc 2026-05-06 18:14 16M
20260506T12Z_MSC_CAPS_SeaWaterSalinity_DBS-0.5m_RLatLon0.03_PT043H.nc 2026-05-06 18:14 16M
20260506T12Z_MSC_CAPS_SeaWaterSalinity_DBS-all_RLatLon0.03_PT043H.nc 2026-05-06 18:14 107M
20260506T12Z_MSC_CAPS_SeaWaterTemp_DBS-0.5m_RLatLon0.03_PT043H.nc 2026-05-06 18:14 15M
20260506T12Z_MSC_CAPS_SeaWaterTemp_DBS-all_RLatLon0.03_PT043H.nc 2026-05-06 18:14 88M
20260506T12Z_MSC_CAPS_SeaWaterVelocityX_DBS-0.5m_RLatLon0.03_PT043H.nc 2026-05-06 18:14 17M
20260506T12Z_MSC_CAPS_SeaWaterVelocityX_DBS-all_RLatLon0.03_PT043H.nc 2026-05-06 18:14 211M
20260506T12Z_MSC_CAPS_SeaWaterVelocityY_DBS-0.5m_RLatLon0.03_PT043H.nc 2026-05-06 18:14 18M
20260506T12Z_MSC_CAPS_SeaWaterVelocityY_DBS-all_RLatLon0.03_PT043H.nc 2026-05-06 18:14 218M
20260506T12Z_MSC_CAPS_SensibleHeatNetFlux_Sfc_RLatLon0.03_PT043H.grib2 2026-05-06 18:26 2.0M
20260506T12Z_MSC_CAPS_ShowalterIndex_IsbL-0500_RLatLon0.03_PT043H.grib2 2026-05-06 18:26 4.3M
20260506T12Z_MSC_CAPS_Snow-Accum_Sfc_RLatLon0.03_PT043H.grib2 2026-05-06 18:26 4.5M
20260506T12Z_MSC_CAPS_SnowDensity_Sfc_RLatLon0.03_PT043H.grib2 2026-05-06 18:26 1.3M
20260506T12Z_MSC_CAPS_SnowDepthWaterEquivalent_Sfc_RLatLon0.03_PT043H.grib2 2026-05-06 18:26 646K
20260506T12Z_MSC_CAPS_SnowDepth_Sfc_RLatLon0.03_PT043H.grib2 2026-05-06 18:26 1.1M
20260506T12Z_MSC_CAPS_SoilTemp_DBS-0to10cm_RLatLon0.03_PT043H.grib2 2026-05-06 18:26 1.7M
20260506T12Z_MSC_CAPS_SoilTemp_Sfc_RLatLon0.03_PT043H.grib2 2026-05-06 18:26 1.8M
20260506T12Z_MSC_CAPS_SoilVolumetricIceContent_Sfc_RLatLon0.03_PT043H.grib2 2026-05-06 18:26 1.4M
20260506T12Z_MSC_CAPS_SoilVolumetricWaterContent_DBS-0to10cm_RLatLon0.03_PT043H.grib2 2026-05-06 18:26 1.4M
20260506T12Z_MSC_CAPS_SoilVolumetricWaterContent_DBS-0to1cm_RLatLon0.03_PT043H.grib2 2026-05-06 18:26 1.8M
20260506T12Z_MSC_CAPS_SpecificHumidity_AGL-120m_RLatLon0.03_PT043H.grib2 2026-05-06 18:26 1.5M
20260506T12Z_MSC_CAPS_SpecificHumidity_AGL-2m_RLatLon0.03_PT043H.grib2 2026-05-06 18:26 1.8M
20260506T12Z_MSC_CAPS_SpecificHumidity_AGL-40m_RLatLon0.03_PT043H.grib2 2026-05-06 18:26 1.6M
20260506T12Z_MSC_CAPS_SpecificHumidity_AGL-80m_RLatLon0.03_PT043H.grib2 2026-05-06 18:26 1.5M
20260506T12Z_MSC_CAPS_SpecificHumidity_IsbL-0050_RLatLon0.03_PT043H.grib2 2026-05-06 18:26 931K
20260506T12Z_MSC_CAPS_SpecificHumidity_IsbL-0100_RLatLon0.03_PT043H.grib2 2026-05-06 18:26 973K
20260506T12Z_MSC_CAPS_SpecificHumidity_IsbL-0150_RLatLon0.03_PT043H.grib2 2026-05-06 18:26 1.0M
20260506T12Z_MSC_CAPS_SpecificHumidity_IsbL-0175_RLatLon0.03_PT043H.grib2 2026-05-06 18:26 1.0M
20260506T12Z_MSC_CAPS_SpecificHumidity_IsbL-0200_RLatLon0.03_PT043H.grib2 2026-05-06 18:26 915K
20260506T12Z_MSC_CAPS_SpecificHumidity_IsbL-0225_RLatLon0.03_PT043H.grib2 2026-05-06 18:26 872K
20260506T12Z_MSC_CAPS_SpecificHumidity_IsbL-0250_RLatLon0.03_PT043H.grib2 2026-05-06 18:26 883K
20260506T12Z_MSC_CAPS_SpecificHumidity_IsbL-0275_RLatLon0.03_PT043H.grib2 2026-05-06 18:26 1.1M
20260506T12Z_MSC_CAPS_SpecificHumidity_IsbL-0300_RLatLon0.03_PT043H.grib2 2026-05-06 18:26 1.1M
20260506T12Z_MSC_CAPS_SpecificHumidity_IsbL-0350_RLatLon0.03_PT043H.grib2 2026-05-06 18:26 1.0M
20260506T12Z_MSC_CAPS_SpecificHumidity_IsbL-0400_RLatLon0.03_PT043H.grib2 2026-05-06 18:26 1.0M
20260506T12Z_MSC_CAPS_SpecificHumidity_IsbL-0450_RLatLon0.03_PT043H.grib2 2026-05-06 18:26 1.0M
20260506T12Z_MSC_CAPS_SpecificHumidity_IsbL-0500_RLatLon0.03_PT043H.grib2 2026-05-06 18:26 1.1M
20260506T12Z_MSC_CAPS_SpecificHumidity_IsbL-0550_RLatLon0.03_PT043H.grib2 2026-05-06 18:26 1.3M
20260506T12Z_MSC_CAPS_SpecificHumidity_IsbL-0600_RLatLon0.03_PT043H.grib2 2026-05-06 18:26 1.5M
20260506T12Z_MSC_CAPS_SpecificHumidity_IsbL-0650_RLatLon0.03_PT043H.grib2 2026-05-06 18:26 1.3M
20260506T12Z_MSC_CAPS_SpecificHumidity_IsbL-0700_RLatLon0.03_PT043H.grib2 2026-05-06 18:26 1.4M
20260506T12Z_MSC_CAPS_SpecificHumidity_IsbL-0750_RLatLon0.03_PT043H.grib2 2026-05-06 18:26 1.5M
20260506T12Z_MSC_CAPS_SpecificHumidity_IsbL-0800_RLatLon0.03_PT043H.grib2 2026-05-06 18:26 1.7M
20260506T12Z_MSC_CAPS_SpecificHumidity_IsbL-0850_RLatLon0.03_PT043H.grib2 2026-05-06 18:26 1.8M
20260506T12Z_MSC_CAPS_SpecificHumidity_IsbL-0875_RLatLon0.03_PT043H.grib2 2026-05-06 18:26 1.9M
20260506T12Z_MSC_CAPS_SpecificHumidity_IsbL-0900_RLatLon0.03_PT043H.grib2 2026-05-06 18:26 1.6M
20260506T12Z_MSC_CAPS_SpecificHumidity_IsbL-0925_RLatLon0.03_PT043H.grib2 2026-05-06 18:26 1.6M
20260506T12Z_MSC_CAPS_SpecificHumidity_IsbL-0950_RLatLon0.03_PT043H.grib2 2026-05-06 18:26 1.7M
20260506T12Z_MSC_CAPS_SpecificHumidity_IsbL-0970_RLatLon0.03_PT043H.grib2 2026-05-06 18:26 1.7M
20260506T12Z_MSC_CAPS_SpecificHumidity_IsbL-0985_RLatLon0.03_PT043H.grib2 2026-05-06 18:26 2.2M
20260506T12Z_MSC_CAPS_SpecificHumidity_IsbL-1000_RLatLon0.03_PT043H.grib2 2026-05-06 18:26 1.8M
20260506T12Z_MSC_CAPS_SpecificHumidity_IsbL-1015_RLatLon0.03_PT043H.grib2 2026-05-06 18:26 1.8M
20260506T12Z_MSC_CAPS_SpecificHumidity_Sfc_RLatLon0.03_PT043H.grib2 2026-05-06 18:26 2.1M
20260506T12Z_MSC_CAPS_StormRelativeHelicity_Sfc_RLatLon0.03_PT043H.grib2 2026-05-06 18:26 3.2M
20260506T12Z_MSC_CAPS_Thickness_IsbL-1000to0500_RLatLon0.03_PT043H.grib2 2026-05-06 18:26 412K
20260506T12Z_MSC_CAPS_TotalCloudCover_Sfc_RLatLon0.03_PT043H.grib2 2026-05-06 18:26 3.7M
20260506T12Z_MSC_CAPS_TurboclineDepth_Sfc_RLatLon0.03_PT043H.nc 2026-05-06 18:14 16M
20260506T12Z_MSC_CAPS_UpwardLongwaveRadiationFlux_NTAtm_RLatLon0.03_PT043H.grib2 2026-05-06 18:26 3.0M
20260506T12Z_MSC_CAPS_UpwardShortwaveRadiationFlux_NTAtm_RLatLon0.03_PT043H.grib2 2026-05-06 18:26 1.9M
20260506T12Z_MSC_CAPS_VerticalVelocity_IsbL-0250_RLatLon0.03_PT043H.grib2 2026-05-06 18:26 1.2M
20260506T12Z_MSC_CAPS_VerticalVelocity_IsbL-0500_RLatLon0.03_PT043H.grib2 2026-05-06 18:26 1.0M
20260506T12Z_MSC_CAPS_VerticalVelocity_IsbL-0700_RLatLon0.03_PT043H.grib2 2026-05-06 18:26 1.1M
20260506T12Z_MSC_CAPS_VerticalVelocity_IsbL-0850_RLatLon0.03_PT043H.grib2 2026-05-06 18:26 1.4M
20260506T12Z_MSC_CAPS_VerticalVelocity_IsbL-1000_RLatLon0.03_PT043H.grib2 2026-05-06 18:26 1.3M
20260506T12Z_MSC_CAPS_WindDir_AGL-10m_RLatLon0.03_PT043H.grib2 2026-05-06 18:26 2.5M
20260506T12Z_MSC_CAPS_WindDir_AGL-120m_RLatLon0.03_PT043H.grib2 2026-05-06 18:26 1.3M
20260506T12Z_MSC_CAPS_WindDir_AGL-40m_RLatLon0.03_PT043H.grib2 2026-05-06 18:26 1.4M
20260506T12Z_MSC_CAPS_WindDir_AGL-80m_RLatLon0.03_PT043H.grib2 2026-05-06 18:26 1.4M
20260506T12Z_MSC_CAPS_WindDir_IsbL-0050_RLatLon0.03_PT043H.grib2 2026-05-06 18:26 1.2M
20260506T12Z_MSC_CAPS_WindDir_IsbL-0100_RLatLon0.03_PT043H.grib2 2026-05-06 18:26 1.0M
20260506T12Z_MSC_CAPS_WindDir_IsbL-0150_RLatLon0.03_PT043H.grib2 2026-05-06 18:26 1.1M
20260506T12Z_MSC_CAPS_WindDir_IsbL-0175_RLatLon0.03_PT043H.grib2 2026-05-06 18:26 1.1M
20260506T12Z_MSC_CAPS_WindDir_IsbL-0200_RLatLon0.03_PT043H.grib2 2026-05-06 18:26 1.1M
20260506T12Z_MSC_CAPS_WindDir_IsbL-0225_RLatLon0.03_PT043H.grib2 2026-05-06 18:26 1.1M
20260506T12Z_MSC_CAPS_WindDir_IsbL-0250_RLatLon0.03_PT043H.grib2 2026-05-06 18:26 1.1M
20260506T12Z_MSC_CAPS_WindDir_IsbL-0275_RLatLon0.03_PT043H.grib2 2026-05-06 18:26 1.1M
20260506T12Z_MSC_CAPS_WindDir_IsbL-0300_RLatLon0.03_PT043H.grib2 2026-05-06 18:26 1.1M
20260506T12Z_MSC_CAPS_WindDir_IsbL-0350_RLatLon0.03_PT043H.grib2 2026-05-06 18:26 1.1M
20260506T12Z_MSC_CAPS_WindDir_IsbL-0400_RLatLon0.03_PT043H.grib2 2026-05-06 18:26 1.2M
20260506T12Z_MSC_CAPS_WindDir_IsbL-0450_RLatLon0.03_PT043H.grib2 2026-05-06 18:26 1.2M
20260506T12Z_MSC_CAPS_WindDir_IsbL-0500_RLatLon0.03_PT043H.grib2 2026-05-06 18:26 1.2M
20260506T12Z_MSC_CAPS_WindDir_IsbL-0550_RLatLon0.03_PT043H.grib2 2026-05-06 18:26 1.3M
20260506T12Z_MSC_CAPS_WindDir_IsbL-0600_RLatLon0.03_PT043H.grib2 2026-05-06 18:26 1.4M
20260506T12Z_MSC_CAPS_WindDir_IsbL-0650_RLatLon0.03_PT043H.grib2 2026-05-06 18:26 1.4M
20260506T12Z_MSC_CAPS_WindDir_IsbL-0700_RLatLon0.03_PT043H.grib2 2026-05-06 18:26 1.5M
20260506T12Z_MSC_CAPS_WindDir_IsbL-0750_RLatLon0.03_PT043H.grib2 2026-05-06 18:26 1.6M
20260506T12Z_MSC_CAPS_WindDir_IsbL-0800_RLatLon0.03_PT043H.grib2 2026-05-06 18:26 1.8M
20260506T12Z_MSC_CAPS_WindDir_IsbL-0850_RLatLon0.03_PT043H.grib2 2026-05-06 18:26 1.9M
20260506T12Z_MSC_CAPS_WindDir_IsbL-0875_RLatLon0.03_PT043H.grib2 2026-05-06 18:26 1.9M
20260506T12Z_MSC_CAPS_WindDir_IsbL-0900_RLatLon0.03_PT043H.grib2 2026-05-06 18:26 2.0M
20260506T12Z_MSC_CAPS_WindDir_IsbL-0925_RLatLon0.03_PT043H.grib2 2026-05-06 18:26 2.0M
20260506T12Z_MSC_CAPS_WindDir_IsbL-0950_RLatLon0.03_PT043H.grib2 2026-05-06 18:26 2.1M
20260506T12Z_MSC_CAPS_WindDir_IsbL-0970_RLatLon0.03_PT043H.grib2 2026-05-06 18:26 2.2M
20260506T12Z_MSC_CAPS_WindDir_IsbL-0985_RLatLon0.03_PT043H.grib2 2026-05-06 18:26 2.3M
20260506T12Z_MSC_CAPS_WindDir_IsbL-1000_RLatLon0.03_PT043H.grib2 2026-05-06 18:26 2.4M
20260506T12Z_MSC_CAPS_WindDir_IsbL-1015_RLatLon0.03_PT043H.grib2 2026-05-06 18:26 2.5M
20260506T12Z_MSC_CAPS_WindGust-Max_AGL-10m_RLatLon0.03_PT043H.grib2 2026-05-06 18:26 2.5M
20260506T12Z_MSC_CAPS_WindGust-Min_AGL-10m_RLatLon0.03_PT043H.grib2 2026-05-06 18:26 2.4M
20260506T12Z_MSC_CAPS_WindGust_AGL-10m_RLatLon0.03_PT043H.grib2 2026-05-06 18:26 2.5M
20260506T12Z_MSC_CAPS_WindSpeed_AGL-10m_RLatLon0.03_PT043H.grib2 2026-05-06 18:26 2.1M
20260506T12Z_MSC_CAPS_WindSpeed_AGL-120m_RLatLon0.03_PT043H.grib2 2026-05-06 18:26 1.1M
20260506T12Z_MSC_CAPS_WindSpeed_AGL-40m_RLatLon0.03_PT043H.grib2 2026-05-06 18:26 1.2M
20260506T12Z_MSC_CAPS_WindSpeed_AGL-80m_RLatLon0.03_PT043H.grib2 2026-05-06 18:26 1.1M
20260506T12Z_MSC_CAPS_WindSpeed_IsbL-0050_RLatLon0.03_PT043H.grib2 2026-05-06 18:26 935K
20260506T12Z_MSC_CAPS_WindSpeed_IsbL-0100_RLatLon0.03_PT043H.grib2 2026-05-06 18:26 866K
20260506T12Z_MSC_CAPS_WindSpeed_IsbL-0150_RLatLon0.03_PT043H.grib2 2026-05-06 18:26 1.0M
20260506T12Z_MSC_CAPS_WindSpeed_IsbL-0175_RLatLon0.03_PT043H.grib2 2026-05-06 18:26 1.1M
20260506T12Z_MSC_CAPS_WindSpeed_IsbL-0200_RLatLon0.03_PT043H.grib2 2026-05-06 18:26 879K
20260506T12Z_MSC_CAPS_WindSpeed_IsbL-0225_RLatLon0.03_PT043H.grib2 2026-05-06 18:26 1.0M
20260506T12Z_MSC_CAPS_WindSpeed_IsbL-0250_RLatLon0.03_PT043H.grib2 2026-05-06 18:26 1.0M
20260506T12Z_MSC_CAPS_WindSpeed_IsbL-0275_RLatLon0.03_PT043H.grib2 2026-05-06 18:26 1.0M
20260506T12Z_MSC_CAPS_WindSpeed_IsbL-0300_RLatLon0.03_PT043H.grib2 2026-05-06 18:26 1.0M
20260506T12Z_MSC_CAPS_WindSpeed_IsbL-0350_RLatLon0.03_PT043H.grib2 2026-05-06 18:26 1.0M
20260506T12Z_MSC_CAPS_WindSpeed_IsbL-0400_RLatLon0.03_PT043H.grib2 2026-05-06 18:26 1.0M
20260506T12Z_MSC_CAPS_WindSpeed_IsbL-0450_RLatLon0.03_PT043H.grib2 2026-05-06 18:26 1.0M
20260506T12Z_MSC_CAPS_WindSpeed_IsbL-0500_RLatLon0.03_PT043H.grib2 2026-05-06 18:26 1.3M
20260506T12Z_MSC_CAPS_WindSpeed_IsbL-0550_RLatLon0.03_PT043H.grib2 2026-05-06 18:26 1.5M
20260506T12Z_MSC_CAPS_WindSpeed_IsbL-0600_RLatLon0.03_PT043H.grib2 2026-05-06 18:26 1.5M
20260506T12Z_MSC_CAPS_WindSpeed_IsbL-0650_RLatLon0.03_PT043H.grib2 2026-05-06 18:26 1.5M
20260506T12Z_MSC_CAPS_WindSpeed_IsbL-0700_RLatLon0.03_PT043H.grib2 2026-05-06 18:26 1.5M
20260506T12Z_MSC_CAPS_WindSpeed_IsbL-0750_RLatLon0.03_PT043H.grib2 2026-05-06 18:26 1.6M
20260506T12Z_MSC_CAPS_WindSpeed_IsbL-0800_RLatLon0.03_PT043H.grib2 2026-05-06 18:26 1.7M
20260506T12Z_MSC_CAPS_WindSpeed_IsbL-0850_RLatLon0.03_PT043H.grib2 2026-05-06 18:26 1.7M
20260506T12Z_MSC_CAPS_WindSpeed_IsbL-0875_RLatLon0.03_PT043H.grib2 2026-05-06 18:26 1.8M
20260506T12Z_MSC_CAPS_WindSpeed_IsbL-0900_RLatLon0.03_PT043H.grib2 2026-05-06 18:26 1.8M
20260506T12Z_MSC_CAPS_WindSpeed_IsbL-0925_RLatLon0.03_PT043H.grib2 2026-05-06 18:26 1.9M
20260506T12Z_MSC_CAPS_WindSpeed_IsbL-0950_RLatLon0.03_PT043H.grib2 2026-05-06 18:26 2.0M
20260506T12Z_MSC_CAPS_WindSpeed_IsbL-0970_RLatLon0.03_PT043H.grib2 2026-05-06 18:26 2.0M
20260506T12Z_MSC_CAPS_WindSpeed_IsbL-0985_RLatLon0.03_PT043H.grib2 2026-05-06 18:26 2.0M
20260506T12Z_MSC_CAPS_WindSpeed_IsbL-1000_RLatLon0.03_PT043H.grib2 2026-05-06 18:26 2.1M
20260506T12Z_MSC_CAPS_WindSpeed_IsbL-1015_RLatLon0.03_PT043H.grib2 2026-05-06 18:26 2.1M
20260506T12Z_MSC_CAPS_WindU_AGL-10m_RLatLon0.03_PT043H.grib2 2026-05-06 18:26 1.9M
20260506T12Z_MSC_CAPS_WindU_AGL-120m_RLatLon0.03_PT043H.grib2 2026-05-06 18:26 890K
20260506T12Z_MSC_CAPS_WindU_AGL-40m_RLatLon0.03_PT043H.grib2 2026-05-06 18:26 1.2M
20260506T12Z_MSC_CAPS_WindU_AGL-80m_RLatLon0.03_PT043H.grib2 2026-05-06 18:26 1.2M
20260506T12Z_MSC_CAPS_WindU_IsbL-0050_RLatLon0.03_PT043H.grib2 2026-05-06 18:26 937K
20260506T12Z_MSC_CAPS_WindU_IsbL-0100_RLatLon0.03_PT043H.grib2 2026-05-06 18:26 779K
20260506T12Z_MSC_CAPS_WindU_IsbL-0150_RLatLon0.03_PT043H.grib2 2026-05-06 18:26 913K
20260506T12Z_MSC_CAPS_WindU_IsbL-0175_RLatLon0.03_PT043H.grib2 2026-05-06 18:26 941K
20260506T12Z_MSC_CAPS_WindU_IsbL-0200_RLatLon0.03_PT043H.grib2 2026-05-06 18:26 749K
20260506T12Z_MSC_CAPS_WindU_IsbL-0225_RLatLon0.03_PT043H.grib2 2026-05-06 18:26 773K
20260506T12Z_MSC_CAPS_WindU_IsbL-0250_RLatLon0.03_PT043H.grib2 2026-05-06 18:26 917K
20260506T12Z_MSC_CAPS_WindU_IsbL-0275_RLatLon0.03_PT043H.grib2 2026-05-06 18:26 921K
20260506T12Z_MSC_CAPS_WindU_IsbL-0300_RLatLon0.03_PT043H.grib2 2026-05-06 18:26 927K
20260506T12Z_MSC_CAPS_WindU_IsbL-0350_RLatLon0.03_PT043H.grib2 2026-05-06 18:26 939K
20260506T12Z_MSC_CAPS_WindU_IsbL-0400_RLatLon0.03_PT043H.grib2 2026-05-06 18:26 949K
20260506T12Z_MSC_CAPS_WindU_IsbL-0450_RLatLon0.03_PT043H.grib2 2026-05-06 18:26 972K
20260506T12Z_MSC_CAPS_WindU_IsbL-0500_RLatLon0.03_PT043H.grib2 2026-05-06 18:26 895K
20260506T12Z_MSC_CAPS_WindU_IsbL-0550_RLatLon0.03_PT043H.grib2 2026-05-06 18:26 935K
20260506T12Z_MSC_CAPS_WindU_IsbL-0600_RLatLon0.03_PT043H.grib2 2026-05-06 18:26 958K
20260506T12Z_MSC_CAPS_WindU_IsbL-0650_RLatLon0.03_PT043H.grib2 2026-05-06 18:26 1.2M
20260506T12Z_MSC_CAPS_WindU_IsbL-0700_RLatLon0.03_PT043H.grib2 2026-05-06 18:26 1.3M
20260506T12Z_MSC_CAPS_WindU_IsbL-0750_RLatLon0.03_PT043H.grib2 2026-05-06 18:26 1.4M
20260506T12Z_MSC_CAPS_WindU_IsbL-0800_RLatLon0.03_PT043H.grib2 2026-05-06 18:26 1.1M
20260506T12Z_MSC_CAPS_WindU_IsbL-0850_RLatLon0.03_PT043H.grib2 2026-05-06 18:26 1.2M
20260506T12Z_MSC_CAPS_WindU_IsbL-0875_RLatLon0.03_PT043H.grib2 2026-05-06 18:26 1.3M
20260506T12Z_MSC_CAPS_WindU_IsbL-0900_RLatLon0.03_PT043H.grib2 2026-05-06 18:26 1.3M
20260506T12Z_MSC_CAPS_WindU_IsbL-0925_RLatLon0.03_PT043H.grib2 2026-05-06 18:26 1.3M
20260506T12Z_MSC_CAPS_WindU_IsbL-0950_RLatLon0.03_PT043H.grib2 2026-05-06 18:26 1.4M
20260506T12Z_MSC_CAPS_WindU_IsbL-0970_RLatLon0.03_PT043H.grib2 2026-05-06 18:26 1.4M
20260506T12Z_MSC_CAPS_WindU_IsbL-0985_RLatLon0.03_PT043H.grib2 2026-05-06 18:26 1.5M
20260506T12Z_MSC_CAPS_WindU_IsbL-1000_RLatLon0.03_PT043H.grib2 2026-05-06 18:26 1.9M
20260506T12Z_MSC_CAPS_WindU_IsbL-1015_RLatLon0.03_PT043H.grib2 2026-05-06 18:26 1.9M
20260506T12Z_MSC_CAPS_WindV_AGL-10m_RLatLon0.03_PT043H.grib2 2026-05-06 18:26 2.0M
20260506T12Z_MSC_CAPS_WindV_AGL-120m_RLatLon0.03_PT043H.grib2 2026-05-06 18:26 1.1M
20260506T12Z_MSC_CAPS_WindV_AGL-40m_RLatLon0.03_PT043H.grib2 2026-05-06 18:26 1.2M
20260506T12Z_MSC_CAPS_WindV_AGL-80m_RLatLon0.03_PT043H.grib2 2026-05-06 18:26 1.2M
20260506T12Z_MSC_CAPS_WindV_IsbL-0050_RLatLon0.03_PT043H.grib2 2026-05-06 18:26 767K
20260506T12Z_MSC_CAPS_WindV_IsbL-0100_RLatLon0.03_PT043H.grib2 2026-05-06 18:26 775K
20260506T12Z_MSC_CAPS_WindV_IsbL-0150_RLatLon0.03_PT043H.grib2 2026-05-06 18:26 902K
20260506T12Z_MSC_CAPS_WindV_IsbL-0175_RLatLon0.03_PT043H.grib2 2026-05-06 18:26 842K
20260506T12Z_MSC_CAPS_WindV_IsbL-0200_RLatLon0.03_PT043H.grib2 2026-05-06 18:26 866K
20260506T12Z_MSC_CAPS_WindV_IsbL-0225_RLatLon0.03_PT043H.grib2 2026-05-06 18:26 679K
20260506T12Z_MSC_CAPS_WindV_IsbL-0250_RLatLon0.03_PT043H.grib2 2026-05-06 18:26 698K
20260506T12Z_MSC_CAPS_WindV_IsbL-0275_RLatLon0.03_PT043H.grib2 2026-05-06 18:26 704K
20260506T12Z_MSC_CAPS_WindV_IsbL-0300_RLatLon0.03_PT043H.grib2 2026-05-06 18:26 710K
20260506T12Z_MSC_CAPS_WindV_IsbL-0350_RLatLon0.03_PT043H.grib2 2026-05-06 18:26 719K
20260506T12Z_MSC_CAPS_WindV_IsbL-0400_RLatLon0.03_PT043H.grib2 2026-05-06 18:26 943K
20260506T12Z_MSC_CAPS_WindV_IsbL-0450_RLatLon0.03_PT043H.grib2 2026-05-06 18:26 965K
20260506T12Z_MSC_CAPS_WindV_IsbL-0500_RLatLon0.03_PT043H.grib2 2026-05-06 18:26 1.0M
20260506T12Z_MSC_CAPS_WindV_IsbL-0550_RLatLon0.03_PT043H.grib2 2026-05-06 18:26 1.0M
20260506T12Z_MSC_CAPS_WindV_IsbL-0600_RLatLon0.03_PT043H.grib2 2026-05-06 18:26 1.0M
20260506T12Z_MSC_CAPS_WindV_IsbL-0650_RLatLon0.03_PT043H.grib2 2026-05-06 18:26 1.0M
20260506T12Z_MSC_CAPS_WindV_IsbL-0700_RLatLon0.03_PT043H.grib2 2026-05-06 18:26 1.0M
20260506T12Z_MSC_CAPS_WindV_IsbL-0750_RLatLon0.03_PT043H.grib2 2026-05-06 18:26 1.1M
20260506T12Z_MSC_CAPS_WindV_IsbL-0800_RLatLon0.03_PT043H.grib2 2026-05-06 18:26 1.1M
20260506T12Z_MSC_CAPS_WindV_IsbL-0850_RLatLon0.03_PT043H.grib2 2026-05-06 18:26 1.2M
20260506T12Z_MSC_CAPS_WindV_IsbL-0875_RLatLon0.03_PT043H.grib2 2026-05-06 18:26 1.2M
20260506T12Z_MSC_CAPS_WindV_IsbL-0900_RLatLon0.03_PT043H.grib2 2026-05-06 18:26 1.3M
20260506T12Z_MSC_CAPS_WindV_IsbL-0925_RLatLon0.03_PT043H.grib2 2026-05-06 18:26 1.3M
20260506T12Z_MSC_CAPS_WindV_IsbL-0950_RLatLon0.03_PT043H.grib2 2026-05-06 18:26 1.7M
20260506T12Z_MSC_CAPS_WindV_IsbL-0970_RLatLon0.03_PT043H.grib2 2026-05-06 18:26 1.8M
20260506T12Z_MSC_CAPS_WindV_IsbL-0985_RLatLon0.03_PT043H.grib2 2026-05-06 18:26 1.9M
20260506T12Z_MSC_CAPS_WindV_IsbL-1000_RLatLon0.03_PT043H.grib2 2026-05-06 18:26 2.0M
20260506T12Z_MSC_CAPS_WindV_IsbL-1015_RLatLon0.03_PT043H.grib2 2026-05-06 18:26 2.0M